| time (UTC) | temp F | wind direction | speed MPH | gust MPH | rain 1hr in | rain 24hr in | rain mn in | humidity % | barometer mb |
| 20260831051004 | 63 | 154 | 0.0 | 2.0 | 0.00 | 0.01 | 0.00 | 94 | 1017.4 |
| 20260831050503 | 63 | 188 | 0.0 | 2.0 | 0.00 | 0.01 | 0.00 | 94 | 1017.5 |
| 20260831050103 | 62 | 223 | 0.0 | 1.0 | 0.00 | 0.01 | 0.00 | 93 | 1019.0 |
| 20260831050004 | 63 | 211 | 1.0 | 1.0 | 0.00 | 0.01 | 0.00 | 94 | 1017.5 |
| 20260831045503 | 63 | 209 | 1.0 | 1.0 | 0.00 | 0.01 | 0.00 | 94 | 1017.5 |
| 20260831045003 | 63 | 99 | 0.0 | 1.0 | 0.00 | 0.01 | 0.00 | 94 | 1017.6 |
| 20260831044552 | 62 | 0 | 0.0 | 1.0 | 0.00 | 0.01 | 0.00 | 93 | 1019.3 |
| 20260831044503 | 63 | 354 | 0.0 | 1.0 | 0.00 | 0.01 | 0.00 | 94 | 1017.7 |
| 20260831044004 | 63 | 29 | 0.0 | 1.0 | 0.00 | 0.01 | 0.00 | 94 | 1017.7 |
| 20260831043504 | 63 | 200 | 0.0 | 2.0 | 0.00 | 0.01 | 0.00 | 93 | 1017.7 |
| 20260831043058 | 62 | 206 | 0.0 | 1.0 | 0.00 | 0.01 | 0.00 | 93 | 1019.4 |
| 20260831043004 | 63 | 200 | 1.0 | 1.0 | 0.00 | 0.01 | 0.00 | 93 | 1017.8 |
| 20260831042503 | 63 | 111 | 0.0 | 1.0 | 0.00 | 0.01 | 0.00 | 93 | 1017.8 |
| 20260831041554 | 62 | 0 | 0.0 | 1.0 | 0.00 | 0.01 | 0.00 | 93 | 1019.2 |
| 20260831041504 | 63 | 353 | 0.0 | 1.0 | 0.00 | 0.01 | 0.00 | 93 | 1017.6 |
| 20260831041003 | 63 | 48 | 0.0 | 1.0 | 0.00 | 0.01 | 0.00 | 93 | 1017.5 |
| 20260831040503 | 63 | 332 | 0.0 | 1.0 | 0.00 | 0.01 | 0.00 | 93 | 1017.6 |
| 20260831040055 | 63 | 0 | 0.0 | 0.0 | 0.00 | 0.01 | 0.00 | 92 | 1019.2 |
| 20260831040004 | 63 | 103 | 0.0 | 0.0 | 0.00 | 0.01 | 0.00 | 93 | 1017.6 |
| 20260831035503 | 63 | 144 | 0.0 | 0.0 | 0.00 | 0.01 | 0.01 | 93 | 1017.6 |
| 20260831035003 | 63 | 43 | 0.0 | 1.0 | 0.00 | 0.01 | 0.01 | 93 | 1017.5 |
| 20260831034610 | 63 | 0 | 0.0 | 1.0 | 0.00 | 0.01 | 0.01 | 93 | 1019.2 |
| 20260831034504 | 63 | 45 | 0.0 | 1.0 | 0.00 | 0.01 | 0.01 | 93 | 1017.6 |
| 20260831034004 | 63 | 224 | 0.0 | 1.0 | 0.00 | 0.01 | 0.01 | 93 | 1017.5 |
| 20260831033504 | 63 | 182 | 0.0 | 0.0 | 0.00 | 0.01 | 0.01 | 93 | 1017.6 |
| 20260831033058 | 63 | 0 | 0.0 | 1.0 | 0.00 | 0.01 | 0.01 | 92 | 1019.1 |
| 20260831033004 | 64 | 30 | 0.0 | 1.0 | 0.00 | 0.01 | 0.01 | 93 | 1017.6 |
| 20260831032003 | 64 | 147 | 0.0 | 1.0 | 0.00 | 0.01 | 0.01 | 93 | 1017.6 |
| 20260831031556 | 63 | 145 | 0.0 | 1.0 | 0.00 | 0.01 | 0.01 | 92 | 1019.1 |
| 20260831031004 | 64 | 19 | 0.0 | 1.0 | 0.00 | 0.01 | 0.01 | 93 | 1017.7 |
| 20260831030504 | 64 | 238 | 0.0 | 1.0 | 0.00 | 0.01 | 0.01 | 93 | 1017.6 |
| 20260831030057 | 64 | 0 | 0.0 | 1.0 | 0.00 | 0.01 | 0.01 | 92 | 1018.9 |
| 20260831030003 | 64 | 179 | 0.0 | 1.0 | 0.00 | 0.01 | 0.01 | 92 | 1017.4 |
| 20260831025503 | 64 | 95 | 0.0 | 0.0 | 0.00 | 0.01 | 0.01 | 93 | 1017.4 |
| 20260831025003 | 64 | 70 | 0.0 | 1.0 | 0.00 | 0.01 | 0.01 | 93 | 1017.4 |
| 20260831024558 | 64 | 0 | 0.0 | 1.0 | 0.00 | 0.01 | 0.01 | 92 | 1019.0 |
| 20260831024503 | 64 | 240 | 0.0 | 1.0 | 0.00 | 0.01 | 0.01 | 92 | 1017.4 |
| 20260831024004 | 64 | 233 | 0.0 | 1.0 | 0.00 | 0.01 | 0.01 | 93 | 1017.4 |
| 20260831023504 | 64 | 219 | 0.0 | 1.0 | 0.00 | 0.01 | 0.01 | 92 | 1017.4 |
| 20260831023055 | 64 | 0 | 0.0 | 2.0 | 0.00 | 0.01 | 0.01 | 92 | 1018.9 |
| 20260831022503 | 65 | 73 | 0.0 | 1.0 | 0.00 | 0.01 | 0.01 | 92 | 1017.6 |
| 20260831022003 | 65 | 185 | 0.0 | 1.0 | 0.00 | 0.01 | 0.01 | 92 | 1017.6 |
| 20260831021554 | 64 | 0 | 0.0 | 1.0 | 0.00 | 0.01 | 0.01 | 92 | 1019.2 |
| 20260831021503 | 65 | 180 | 1.0 | 1.0 | 0.00 | 0.01 | 0.01 | 92 | 1017.6 |
| 20260831021004 | 65 | 198 | 0.0 | 1.0 | 0.00 | 0.01 | 0.01 | 92 | 1017.6 |
| 20260831020504 | 65 | 193 | 0.0 | 1.0 | 0.00 | 0.01 | 0.01 | 92 | 1017.7 |
| 20260831020056 | 64 | 0 | 0.0 | 2.0 | 0.00 | 0.01 | 0.01 | 92 | 1019.2 |
| 20260831020004 | 65 | 178 | 1.0 | 2.0 | 0.00 | 0.01 | 0.01 | 92 | 1017.7 |
| 20260831015503 | 65 | 211 | 1.0 | 2.0 | 0.00 | 0.01 | 0.01 | 92 | 1017.8 |
| 20260831015003 | 65 | 221 | 0.0 | 1.0 | 0.00 | 0.01 | 0.01 | 92 | 1017.9 |
| 20260831014621 | 64 | 0 | 0.0 | 2.0 | 0.00 | 0.01 | 0.01 | 91 | 1019.4 |
| 20260831014504 | 65 | 180 | 0.0 | 1.0 | 0.00 | 0.01 | 0.01 | 92 | 1018.0 |
| 20260831014004 | 65 | 179 | 1.0 | 2.0 | 0.00 | 0.01 | 0.01 | 91 | 1018.0 |
| 20260831013504 | 65 | 166 | 0.0 | 1.0 | 0.00 | 0.01 | 0.01 | 91 | 1018.1 |
| 20260831013059 | 64 | 0 | 0.0 | 1.0 | 0.00 | 0.01 | 0.01 | 91 | 1019.4 |
| 20260831013004 | 65 | 56 | 0.0 | 1.0 | 0.00 | 0.01 | 0.01 | 91 | 1018.0 |
| 20260831012503 | 65 | 153 | 0.0 | 1.0 | 0.00 | 0.01 | 0.01 | 91 | 1017.9 |
| 20260831012004 | 65 | 49 | 0.0 | 0.0 | 0.00 | 0.01 | 0.01 | 91 | 1017.9 |
| 20260831011604 | 65 | 0 | 0.0 | 1.0 | 0.00 | 0.01 | 0.01 | 90 | 1019.2 |
| 20260831011506 | 65 | 10 | 0.0 | 1.0 | 0.00 | 0.01 | 0.01 | 91 | 1017.7 |
| 20260831011003 | 65 | 6 | 0.0 | 1.0 | 0.00 | 0.01 | 0.01 | 91 | 1017.7 |
| 20260831010503 | 65 | 47 | 0.0 | 1.0 | 0.00 | 0.01 | 0.01 | 91 | 1017.5 |
| 20260831010107 | 65 | 0 | 0.0 | 1.0 | 0.00 | 0.01 | 0.01 | 90 | 1019.0 |
| 20260831005504 | 65 | 185 | 0.0 | 0.0 | 0.00 | 0.01 | 0.01 | 90 | 1017.4 |
| 20260831005004 | 66 | 73 | 0.0 | 1.0 | 0.00 | 0.01 | 0.01 | 90 | 1017.4 |
| 20260831004555 | 65 | 0 | 0.0 | 1.0 | 0.00 | 0.01 | 0.01 | 89 | 1018.8 |
| 20260831004504 | 66 | 6 | 0.0 | 1.0 | 0.00 | 0.01 | 0.01 | 90 | 1017.3 |
| 20260831004004 | 66 | 51 | 0.0 | 1.0 | 0.00 | 0.01 | 0.01 | 90 | 1017.2 |
| 20260831003504 | 66 | 40 | 0.0 | 1.0 | 0.00 | 0.01 | 0.01 | 89 | 1017.0 |
| 20260831003052 | 66 | 234 | 0.0 | 1.0 | 0.00 | 0.01 | 0.01 | 89 | 1018.5 |
| 20260831003003 | 66 | 228 | 0.0 | 1.0 | 0.00 | 0.01 | 0.01 | 89 | 1016.9 |
| 20260831002504 | 66 | 265 | 0.0 | 1.0 | 0.00 | 0.01 | 0.01 | 88 | 1016.8 |
| 20260831002003 | 66 | 310 | 0.0 | 1.0 | 0.00 | 0.01 | 0.01 | 88 | 1016.8 |
| 20260831001625 | 66 | 0 | 0.0 | 1.0 | 0.00 | 0.01 | 0.01 | 87 | 1018.3 |
| 20260831001503 | 66 | 93 | 0.0 | 1.0 | 0.00 | 0.01 | 0.01 | 88 | 1016.7 |
| 20260831001003 | 67 | 67 | 0.0 | 0.0 | 0.00 | 0.01 | 0.01 | 87 | 1016.7 |
| 20260831000503 | 67 | 96 | 0.0 | 1.0 | 0.00 | 0.01 | 0.01 | 87 | 1016.6 |
| 20260831000057 | 67 | 0 | 0.0 | 1.0 | 0.00 | 0.01 | 0.01 | 86 | 1018.2 |
| 20260831000003 | 67 | 147 | 0.0 | 1.0 | 0.00 | 0.01 | 0.01 | 87 | 1016.7 |
| 20260830235504 | 67 | 338 | 0.0 | 1.0 | 0.00 | 0.01 | 0.01 | 86 | 1016.7 |
| 20260830235004 | 68 | 116 | 0.0 | 1.0 | 0.00 | 0.01 | 0.01 | 85 | 1016.6 |
| 20260830234554 | 67 | 0 | 0.0 | 1.0 | 0.00 | 0.01 | 0.01 | 85 | 1018.0 |
| 20260830234504 | 68 | 57 | 0.0 | 1.0 | 0.00 | 0.01 | 0.01 | 85 | 1016.6 |
| 20260830234004 | 68 | 116 | 0.0 | 1.0 | 0.00 | 0.01 | 0.01 | 85 | 1016.5 |
| 20260830233504 | 68 | 56 | 0.0 | 1.0 | 0.00 | 0.01 | 0.01 | 84 | 1016.5 |
| 20260830233111 | 68 | 0 | 0.0 | 2.0 | 0.00 | 0.01 | 0.01 | 84 | 1017.9 |
| 20260830233004 | 68 | 161 | 1.0 | 2.0 | 0.00 | 0.01 | 0.01 | 84 | 1016.4 |
| 20260830232504 | 69 | 180 | 1.0 | 2.0 | 0.00 | 0.01 | 0.01 | 84 | 1016.4 |
| 20260830232003 | 69 | 184 | 1.0 | 1.0 | 0.00 | 0.01 | 0.01 | 84 | 1016.5 |
| 20260830231600 | 69 | 164 | 0.0 | 1.0 | 0.00 | 0.01 | 0.01 | 84 | 1018.0 |
| 20260830231503 | 69 | 157 | 0.0 | 1.0 | 0.00 | 0.01 | 0.01 | 84 | 1016.6 |
| 20260830230504 | 69 | 85 | 0.0 | 1.0 | 0.00 | 0.01 | 0.01 | 84 | 1016.6 |
| 20260830230109 | 69 | 0 | 0.0 | 1.0 | 0.00 | 0.01 | 0.01 | 83 | 1018.1 |
| 20260830230007 | 69 | 87 | 0.0 | 1.0 | 0.00 | 0.01 | 0.01 | 84 | 1016.6 |
| 20260830225504 | 69 | 127 | 0.0 | 1.0 | 0.00 | 0.01 | 0.01 | 83 | 1016.6 |
| 20260830225004 | 69 | 124 | 0.0 | 1.0 | 0.00 | 0.01 | 0.01 | 83 | 1016.6 |
| 20260830224554 | 69 | 145 | 0.0 | 2.0 | 0.00 | 0.01 | 0.01 | 83 | 1018.2 |
| 20260830224504 | 69 | 101 | 0.0 | 2.0 | 0.00 | 0.01 | 0.01 | 83 | 1016.7 |
| 20260830224003 | 69 | 69 | 0.0 | 1.0 | 0.00 | 0.01 | 0.01 | 83 | 1016.7 |
| 20260830223503 | 70 | 255 | 1.0 | 2.0 | 0.00 | 0.01 | 0.01 | 82 | 1016.7 |
| 20260830223104 | 69 | 0 | 0.0 | 2.0 | 0.00 | 0.01 | 0.01 | 82 | 1018.2 |
| 20260830223003 | 70 | 264 | 0.0 | 1.0 | 0.00 | 0.01 | 0.01 | 82 | 1016.7 |
| 20260830222503 | 70 | 273 | 0.0 | 1.0 | 0.00 | 0.01 | 0.01 | 81 | 1016.7 |
| 20260830222004 | 70 | 257 | 1.0 | 2.0 | 0.00 | 0.01 | 0.01 | 80 | 1016.7 |
| 20260830221559 | 69 | 0 | 0.0 | 3.0 | 0.00 | 0.01 | 0.01 | 80 | 1018.2 |
| 20260830221504 | 70 | 166 | 1.0 | 3.0 | 0.00 | 0.01 | 0.01 | 80 | 1016.7 |
| 20260830221004 | 70 | 150 | 1.0 | 2.0 | 0.00 | 0.01 | 0.01 | 80 | 1016.7 |
| 20260830220058 | 70 | 187 | 1.0 | 6.0 | 0.00 | 0.01 | 0.01 | 80 | 1018.2 |
| 20260830215004 | 70 | 193 | 3.0 | 6.0 | 0.00 | 0.01 | 0.01 | 83 | 1016.6 |
| 20260830214603 | 70 | 237 | 1.0 | 4.0 | 0.00 | 0.01 | 0.01 | 84 | 1018.0 |
| 20260830214503 | 70 | 195 | 2.0 | 3.0 | 0.00 | 0.01 | 0.01 | 85 | 1016.5 |
| 20260830214003 | 71 | 190 | 2.0 | 3.0 | 0.00 | 0.01 | 0.01 | 85 | 1016.4 |
| 20260830213503 | 71 | 186 | 1.0 | 2.0 | 0.00 | 0.01 | 0.01 | 85 | 1016.5 |
| 20260830213054 | 70 | 213 | 0.0 | 3.0 | 0.00 | 0.01 | 0.01 | 84 | 1018.1 |
| 20260830213003 | 71 | 191 | 1.0 | 3.0 | 0.00 | 0.01 | 0.01 | 85 | 1016.6 |
| 20260830211555 | 70 | 234 | 1.0 | 3.0 | 0.00 | 0.01 | 0.01 | 85 | 1017.9 |
| 20260830211004 | 71 | 254 | 1.0 | 3.0 | 0.00 | 0.01 | 0.01 | 86 | 1016.4 |
| 20260830210504 | 70 | 183 | 1.0 | 2.0 | 0.00 | 0.01 | 0.01 | 86 | 1016.5 |
| 20260830210107 | 70 | 0 | 0.0 | 3.0 | 0.00 | 0.01 | 0.01 | 86 | 1018.1 |
| 20260830210004 | 70 | 190 | 1.0 | 2.0 | 0.00 | 0.01 | 0.01 | 86 | 1016.6 |
| 20260830205004 | 70 | 182 | 1.0 | 2.0 | 0.00 | 0.01 | 0.01 | 86 | 1016.6 |
| 20260830204559 | 70 | 234 | 0.0 | 3.0 | 0.00 | 0.01 | 0.01 | 86 | 1018.2 |
| 20260830204504 | 70 | 183 | 1.0 | 3.0 | 0.00 | 0.01 | 0.01 | 87 | 1016.7 |
| 20260830204004 | 70 | 250 | 0.0 | 2.0 | 0.00 | 0.01 | 0.01 | 87 | 1016.7 |
| 20260830203057 | 70 | 213 | 0.0 | 3.0 | 0.00 | 0.01 | 0.01 | 86 | 1018.3 |
| 20260830202504 | 70 | 253 | 1.0 | 3.0 | 0.00 | 0.01 | 0.01 | 87 | 1016.7 |
| 20260830202004 | 70 | 189 | 1.0 | 3.0 | 0.00 | 0.01 | 0.01 | 88 | 1016.6 |
| 20260830201554 | 70 | 89 | 0.0 | 3.0 | 0.00 | 0.01 | 0.01 | 87 | 1018.2 |
| 20260830201504 | 70 | 244 | 1.0 | 3.0 | 0.00 | 0.01 | 0.01 | 88 | 1016.6 |
| 20260830201004 | 70 | 236 | 1.0 | 2.0 | 0.00 | 0.01 | 0.01 | 88 | 1016.5 |
| 20260830200504 | 70 | 253 | 1.0 | 3.0 | 0.00 | 0.01 | 0.01 | 88 | 1016.5 |
| 20260830200004 | 70 | 313 | 1.0 | 3.0 | 0.00 | 0.01 | 0.01 | 88 | 1016.6 |
| 20260830195003 | 70 | 222 | 1.0 | 3.0 | 0.00 | 0.01 | 0.01 | 88 | 1016.7 |
| 20260830194607 | 69 | 178 | 1.0 | 6.0 | 0.00 | 0.01 | 0.01 | 88 | 1018.2 |
| 20260830194503 | 70 | 227 | 1.0 | 6.0 | 0.00 | 0.01 | 0.01 | 89 | 1016.7 |
| 20260830194003 | 70 | 214 | 2.0 | 3.0 | 0.00 | 0.01 | 0.01 | 89 | 1016.6 |
| 20260830193503 | 69 | 181 | 2.0 | 3.0 | 0.00 | 0.01 | 0.01 | 89 | 1016.7 |
| 20260830193056 | 69 | 213 | 2.0 | 4.0 | 0.00 | 0.01 | 0.01 | 89 | 1018.3 |
| 20260830193004 | 69 | 188 | 2.0 | 3.0 | 0.00 | 0.01 | 0.01 | 90 | 1016.7 |
| 20260830192504 | 69 | 204 | 1.0 | 3.0 | 0.00 | 0.01 | 0.01 | 90 | 1016.8 |
| 20260830192004 | 69 | 209 | 1.0 | 2.0 | 0.00 | 0.01 | 0.01 | 91 | 1016.9 |
| 20260830191556 | 68 | 223 | 1.0 | 3.0 | 0.00 | 0.01 | 0.01 | 91 | 1018.5 |
| 20260830191004 | 68 | 175 | 1.0 | 2.0 | 0.00 | 0.01 | 0.01 | 92 | 1017.0 |
| 20260830190004 | 68 | 7 | 1.0 | 1.0 | 0.00 | 0.01 | 0.01 | 91 | 1017.2 |
| 20260830185503 | 68 | 314 | 1.0 | 2.0 | 0.00 | 0.01 | 0.01 | 91 | 1017.1 |
| 20260830185004 | 68 | 199 | 1.0 | 2.0 | 0.00 | 0.01 | 0.01 | 91 | 1017.0 |
| 20260830184559 | 68 | 0 | 1.0 | 4.0 | 0.00 | 0.01 | 0.01 | 90 | 1018.7 |
| 20260830184003 | 68 | 195 | 1.0 | 3.0 | 0.00 | 0.01 | 0.01 | 91 | 1017.0 |
| 20260830183503 | 68 | 186 | 1.0 | 3.0 | 0.00 | 0.01 | 0.01 | 90 | 1017.1 |
| 20260830183054 | 68 | 167 | 1.0 | 3.0 | 0.00 | 0.01 | 0.01 | 89 | 1018.9 |
| 20260830183003 | 68 | 184 | 2.0 | 3.0 | 0.00 | 0.01 | 0.01 | 90 | 1017.1 |
| 20260830182504 | 68 | 198 | 1.0 | 3.0 | 0.00 | 0.01 | 0.01 | 90 | 1017.2 |
| 20260830182003 | 68 | 221 | 0.0 | 2.0 | 0.00 | 0.01 | 0.01 | 90 | 1017.3 |
| 20260830181556 | 68 | 178 | 1.0 | 4.0 | 0.00 | 0.01 | 0.01 | 89 | 1019.2 |
| 20260830181503 | 68 | 248 | 1.0 | 3.0 | 0.00 | 0.01 | 0.01 | 89 | 1017.3 |
| 20260830180504 | 69 | 93 | 0.0 | 2.0 | 0.00 | 0.01 | 0.01 | 90 | 1017.3 |
| 20260830180054 | 68 | 231 | 0.0 | 3.0 | 0.00 | 0.01 | 0.01 | 89 | 1019.2 |
| 20260830175504 | 69 | 331 | 0.0 | 3.0 | 0.00 | 0.01 | 0.01 | 90 | 1017.2 |
| 20260830175004 | 69 | 244 | 1.0 | 2.0 | 0.00 | 0.01 | 0.01 | 90 | 1017.3 |
| 20260830174610 | 68 | 157 | 0.0 | 2.0 | 0.00 | 0.01 | 0.01 | 90 | 1019.1 |
| 20260830174503 | 68 | 176 | 1.0 | 2.0 | 0.00 | 0.01 | 0.01 | 90 | 1017.2 |
| 20260830174003 | 68 | 134 | 1.0 | 2.0 | 0.00 | 0.01 | 0.01 | 89 | 1017.2 |
| 20260830173053 | 68 | 193 | 1.0 | 3.0 | 0.01 | 0.01 | 0.01 | 88 | 1019.2 |
| 20260830172503 | 69 | 312 | 1.0 | 2.0 | 0.01 | 0.01 | 0.01 | 88 | 1017.5 |
| 20260830172003 | 69 | 98 | 0.0 | 2.0 | 0.01 | 0.01 | 0.01 | 89 | 1017.3 |
| 20260830171559 | 68 | 178 | 0.0 | 3.0 | 0.01 | 0.01 | 0.01 | 88 | 1019.3 |
| 20260830171503 | 68 | 111 | 0.0 | 3.0 | 0.01 | 0.01 | 0.01 | 88 | 1017.4 |
| 20260830171004 | 68 | 316 | 0.0 | 1.0 | 0.01 | 0.01 | 0.01 | 88 | 1017.5 |
| 20260830170504 | 68 | 110 | 1.0 | 2.0 | 0.01 | 0.01 | 0.01 | 87 | 1017.4 |
| 20260830170100 | 68 | 0 | 0.0 | 3.0 | 0.01 | 0.01 | 0.01 | 86 | 1019.3 |
| 20260830170003 | 68 | 191 | 1.0 | 2.0 | 0.01 | 0.01 | 0.01 | 86 | 1017.4 |
| 20260830165503 | 68 | 180 | 0.0 | 3.0 | 0.01 | 0.01 | 0.01 | 87 | 1017.4 |
| 20260830165003 | 68 | 201 | 1.0 | 2.0 | 0.01 | 0.01 | 0.01 | 86 | 1017.6 |
| 20260830164557 | 68 | 1 | 0.0 | 4.0 | 0.01 | 0.01 | 0.01 | 86 | 1019.3 |
| 20260830164003 | 69 | 226 | 1.0 | 3.0 | 0.01 | 0.01 | 0.01 | 84 | 1017.5 |
| 20260830163104 | 69 | 89 | 1.0 | 4.0 | 0.00 | 0.00 | 0.00 | 82 | 1019.3 |
| 20260830163004 | 69 | 208 | 1.0 | 3.0 | 0.00 | 0.00 | 0.00 | 82 | 1017.5 |
| 20260830162004 | 70 | 227 | 1.0 | 2.0 | 0.00 | 0.00 | 0.00 | 82 | 1017.5 |
| 20260830161557 | 69 | 223 | 1.0 | 3.0 | 0.00 | 0.00 | 0.00 | 81 | 1019.3 |
| 20260830161504 | 70 | 243 | 1.0 | 2.0 | 0.00 | 0.00 | 0.00 | 82 | 1017.5 |
| 20260830161004 | 70 | 194 | 1.0 | 3.0 | 0.00 | 0.00 | 0.00 | 81 | 1017.5 |
| 20260830160503 | 70 | 215 | 1.0 | 3.0 | 0.00 | 0.00 | 0.00 | 82 | 1017.5 |
| 20260830160115 | 69 | 148 | 1.0 | 4.0 | 0.00 | 0.00 | 0.00 | 83 | 1019.3 |
| 20260830160003 | 70 | 187 | 1.0 | 3.0 | 0.00 | 0.00 | 0.00 | 83 | 1017.5 |
| 20260830155504 | 69 | 147 | 2.0 | 3.0 | 0.00 | 0.00 | 0.00 | 82 | 1017.5 |
| 20260830155004 | 69 | 205 | 1.0 | 3.0 | 0.00 | 0.00 | 0.00 | 85 | 1017.5 |
| 20260830154601 | 69 | 269 | 0.0 | 3.0 | 0.00 | 0.00 | 0.00 | 84 | 1019.4 |
| 20260830154504 | 69 | 236 | 1.0 | 2.0 | 0.00 | 0.00 | 0.00 | 85 | 1017.5 |
| 20260830153504 | 70 | 275 | 0.0 | 2.0 | 0.00 | 0.00 | 0.00 | 84 | 1017.3 |
| 20260830153059 | 69 | 0 | 0.0 | 2.0 | 0.00 | 0.00 | 0.00 | 84 | 1019.0 |
| 20260830153004 | 70 | 268 | 0.0 | 1.0 | 0.00 | 0.00 | 0.00 | 84 | 1017.2 |
| 20260830152504 | 70 | 134 | 0.0 | 1.0 | 0.00 | 0.00 | 0.00 | 84 | 1017.2 |
| 20260830152004 | 70 | 163 | 0.0 | 1.0 | 0.00 | 0.00 | 0.00 | 82 | 1017.1 |
| 20260830151553 | 69 | 0 | 0.0 | 2.0 | 0.00 | 0.00 | 0.00 | 80 | 1018.9 |
| 20260830151504 | 70 | 78 | 0.0 | 1.0 | 0.00 | 0.00 | 0.00 | 81 | 1017.1 |
| 20260830151004 | 70 | 117 | 1.0 | 2.0 | 0.00 | 0.00 | 0.00 | 81 | 1017.1 |
| 20260830150504 | 70 | 63 | 0.0 | 1.0 | 0.00 | 0.00 | 0.00 | 80 | 1017.3 |
| 20260830150114 | 70 | 108 | 0.0 | 2.0 | 0.00 | 0.00 | 0.00 | 80 | 1019.1 |
| 20260830150003 | 70 | 122 | 0.0 | 1.0 | 0.00 | 0.00 | 0.00 | 81 | 1017.2 |
| 20260830145503 | 70 | 92 | 1.0 | 2.0 | 0.00 | 0.00 | 0.00 | 80 | 1017.0 |
| 20260830144603 | 70 | 223 | 0.0 | 2.0 | 0.00 | 0.00 | 0.00 | 80 | 1019.0 |
| 20260830144503 | 70 | 114 | 1.0 | 2.0 | 0.00 | 0.00 | 0.00 | 81 | 1017.3 |
| 20260830143504 | 69 | 155 | 1.0 | 2.0 | 0.00 | 0.00 | 0.00 | 81 | 1017.3 |
| 20260830143058 | 69 | 253 | 1.0 | 3.0 | 0.00 | 0.00 | 0.00 | 81 | 1019.0 |
| 20260830143004 | 69 | 233 | 2.0 | 3.0 | 0.00 | 0.00 | 0.00 | 82 | 1017.2 |
| 20260830142503 | 69 | 353 | 1.0 | 2.0 | 0.00 | 0.00 | 0.00 | 80 | 1016.9 |
| 20260830142004 | 69 | 109 | 1.0 | 2.0 | 0.00 | 0.00 | 0.00 | 81 | 1017.0 |
| 20260830141553 | 69 | 89 | 0.0 | 1.0 | 0.00 | 0.00 | 0.00 | 81 | 1018.8 |
| 20260830141004 | 69 | 89 | 0.0 | 1.0 | 0.00 | 0.00 | 0.00 | 81 | 1016.9 |
| 20260830140503 | 70 | 74 | 0.0 | 1.0 | 0.00 | 0.00 | 0.00 | 80 | 1016.9 |
| 20260830135504 | 69 | 171 | 1.0 | 1.0 | 0.00 | 0.00 | 0.00 | 78 | 1016.7 |
| 20260830135004 | 69 | 158 | 1.0 | 1.0 | 0.00 | 0.00 | 0.00 | 78 | 1016.7 |
| 20260830134604 | 69 | 0 | 0.0 | 2.0 | 0.00 | 0.00 | 0.00 | 78 | 1018.6 |
| 20260830134504 | 69 | 82 | 0.0 | 2.0 | 0.00 | 0.00 | 0.00 | 79 | 1016.7 |
| 20260830134004 | 69 | 149 | 1.0 | 2.0 | 0.00 | 0.00 | 0.00 | 78 | 1016.7 |
| 20260830133506 | 69 | 178 | 1.0 | 2.0 | 0.00 | 0.00 | 0.00 | 79 | 1016.6 |
| 20260830133056 | 68 | 113 | 0.0 | 2.0 | 0.00 | 0.00 | 0.00 | 78 | 1018.5 |
| 20260830133004 | 68 | 145 | 1.0 | 2.0 | 0.00 | 0.00 | 0.00 | 79 | 1016.6 |
| 20260830132504 | 68 | 155 | 0.0 | 2.0 | 0.00 | 0.00 | 0.00 | 80 | 1016.7 |
| 20260830132004 | 68 | 329 | 1.0 | 2.0 | 0.00 | 0.00 | 0.00 | 80 | 1016.7 |
| 20260830131557 | 67 | 0 | 0.0 | 2.0 | 0.00 | 0.00 | 0.00 | 80 | 1018.5 |
| 20260830131504 | 68 | 312 | 0.0 | 1.0 | 0.00 | 0.00 | 0.00 | 81 | 1016.6 |
| 20260830131003 | 68 | 243 | 0.0 | 1.0 | 0.00 | 0.00 | 0.00 | 81 | 1016.5 |
| 20260830130107 | 67 | 89 | 0.0 | 2.0 | 0.00 | 0.00 | 0.00 | 81 | 1018.4 |
| 20260830130004 | 67 | 114 | 0.0 | 2.0 | 0.00 | 0.00 | 0.00 | 82 | 1016.7 |
| 20260830125504 | 67 | 3 | 0.0 | 1.0 | 0.00 | 0.00 | 0.00 | 81 | 1016.7 |
| 20260830125004 | 67 | 293 | 0.0 | 1.0 | 0.00 | 0.00 | 0.00 | 81 | 1016.7 |
| 20260830124555 | 66 | 89 | 0.0 | 2.0 | 0.00 | 0.00 | 0.00 | 80 | 1018.5 |
| 20260830124504 | 67 | 37 | 0.0 | 1.0 | 0.00 | 0.00 | 0.00 | 81 | 1016.7 |
| 20260830124004 | 67 | 172 | 1.0 | 2.0 | 0.00 | 0.00 | 0.00 | 80 | 1016.8 |
| 20260830123504 | 67 | 31 | 0.0 | 1.0 | 0.00 | 0.00 | 0.00 | 80 | 1016.8 |
| 20260830123055 | 66 | 0 | 0.0 | 2.0 | 0.00 | 0.00 | 0.00 | 80 | 1018.6 |
| 20260830123004 | 67 | 205 | 1.0 | 2.0 | 0.00 | 0.00 | 0.00 | 81 | 1016.8 |
| 20260830122504 | 67 | 197 | 0.0 | 2.0 | 0.00 | 0.00 | 0.00 | 80 | 1016.8 |
| 20260830122004 | 67 | 61 | 0.0 | 2.0 | 0.00 | 0.00 | 0.00 | 79 | 1016.7 |
| 20260830121602 | 66 | 216 | 0.0 | 2.0 | 0.00 | 0.00 | 0.00 | 78 | 1018.4 |
| 20260830121004 | 67 | 195 | 0.0 | 1.0 | 0.00 | 0.00 | 0.00 | 79 | 1016.8 |
| 20260830120504 | 66 | 308 | 0.0 | 3.0 | 0.00 | 0.00 | 0.00 | 78 | 1016.8 |
| 20260830120059 | 66 | 0 | 0.0 | 3.0 | 0.00 | 0.00 | 0.00 | 79 | 1018.5 |
| 20260830120003 | 66 | 293 | 0.0 | 2.0 | 0.00 | 0.00 | 0.00 | 79 | 1016.8 |
| 20260830115003 | 66 | 158 | 1.0 | 2.0 | 0.00 | 0.00 | 0.00 | 80 | 1016.9 |
| 20260830114603 | 66 | 223 | 0.0 | 2.0 | 0.00 | 0.00 | 0.00 | 79 | 1018.7 |
| 20260830114504 | 66 | 210 | 1.0 | 2.0 | 0.00 | 0.00 | 0.00 | 79 | 1016.9 |
| 20260830114003 | 66 | 74 | 1.0 | 1.0 | 0.00 | 0.00 | 0.00 | 79 | 1016.9 |
| 20260830113503 | 66 | 182 | 1.0 | 2.0 | 0.00 | 0.00 | 0.00 | 77 | 1017.0 |
| 20260830113053 | 66 | 201 | 1.0 | 3.0 | 0.00 | 0.00 | 0.00 | 77 | 1018.7 |
| 20260830113003 | 66 | 196 | 2.0 | 3.0 | 0.00 | 0.00 | 0.00 | 77 | 1017.1 |
| 20260830112504 | 66 | 166 | 1.0 | 2.0 | 0.00 | 0.00 | 0.00 | 78 | 1016.9 |
| 20260830111600 | 66 | 161 | 0.0 | 2.0 | 0.00 | 0.00 | 0.00 | 78 | 1018.6 |
| 20260830111504 | 66 | 223 | 1.0 | 2.0 | 0.00 | 0.00 | 0.00 | 78 | 1016.9 |
| 20260830110503 | 66 | 201 | 1.0 | 2.0 | 0.00 | 0.00 | 0.00 | 76 | 1016.9 |
| 20260830110058 | 66 | 206 | 1.0 | 3.0 | 0.00 | 0.00 | 0.00 | 75 | 1018.5 |
| 20260830110004 | 66 | 179 | 1.0 | 2.0 | 0.00 | 0.00 | 0.00 | 75 | 1016.8 |
| 20260830105003 | 66 | 179 | 1.0 | 2.0 | 0.00 | 0.00 | 0.00 | 77 | 1016.9 |
| 20260830104554 | 65 | 216 | 0.0 | 2.0 | 0.00 | 0.00 | 0.00 | 77 | 1018.5 |
| 20260830104503 | 66 | 199 | 1.0 | 2.0 | 0.00 | 0.00 | 0.00 | 77 | 1016.9 |
| 20260830103105 | 66 | 178 | 0.0 | 1.0 | 0.00 | 0.00 | 0.00 | 75 | 1018.5 |
| 20260830103004 | 66 | 147 | 0.0 | 1.0 | 0.00 | 0.00 | 0.00 | 77 | 1016.9 |
| 20260830102504 | 66 | 129 | 0.0 | 1.0 | 0.00 | 0.00 | 0.00 | 76 | 1016.9 |
| 20260830102004 | 66 | 171 | 0.0 | 1.0 | 0.00 | 0.00 | 0.00 | 76 | 1016.9 |
| 20260830101556 | 66 | 135 | 0.0 | 1.0 | 0.00 | 0.00 | 0.00 | 75 | 1018.5 |
| 20260830101504 | 66 | 170 | 0.0 | 1.0 | 0.00 | 0.00 | 0.00 | 75 | 1017.0 |
| 20260830101004 | 66 | 348 | 0.0 | 1.0 | 0.00 | 0.00 | 0.00 | 75 | 1016.9 |
| 20260830100504 | 66 | 100 | 0.0 | 1.0 | 0.00 | 0.00 | 0.00 | 75 | 1017.0 |
| 20260830100059 | 66 | 135 | 0.0 | 3.0 | 0.00 | 0.00 | 0.00 | 75 | 1018.6 |
| 20260830100004 | 66 | 67 | 0.0 | 1.0 | 0.00 | 0.00 | 0.00 | 75 | 1017.1 |
| 20260830095504 | 66 | 94 | 0.0 | 1.0 | 0.00 | 0.00 | 0.00 | 75 | 1017.1 |
| 20260830095004 | 66 | 222 | 1.0 | 3.0 | 0.00 | 0.00 | 0.00 | 74 | 1017.2 |
| 20260830094553 | 66 | 0 | 0.0 | 1.0 | 0.00 | 0.00 | 0.00 | 73 | 1018.7 |
| 20260830094503 | 67 | 123 | 0.0 | 1.0 | 0.00 | 0.00 | 0.00 | 74 | 1017.1 |
| 20260830094003 | 67 | 261 | 0.0 | 1.0 | 0.00 | 0.00 | 0.00 | 74 | 1017.2 |
| 20260830093504 | 67 | 214 | 0.0 | 1.0 | 0.00 | 0.00 | 0.00 | 73 | 1017.0 |
| 20260830093101 | 67 | 0 | 0.0 | 4.0 | 0.00 | 0.00 | 0.00 | 72 | 1018.7 |
| 20260830093004 | 68 | 114 | 0.0 | 2.0 | 0.00 | 0.00 | 0.00 | 72 | 1017.0 |
| 20260830092504 | 68 | 191 | 1.0 | 3.0 | 0.00 | 0.00 | 0.00 | 70 | 1017.0 |
| 20260830092004 | 68 | 181 | 2.0 | 3.0 | 0.00 | 0.00 | 0.00 | 70 | 1017.0 |
| 20260830091557 | 68 | 0 | 1.0 | 4.0 | 0.00 | 0.00 | 0.00 | 69 | 1018.6 |
| 20260830091503 | 68 | 188 | 1.0 | 3.0 | 0.00 | 0.00 | 0.00 | 70 | 1017.0 |
| 20260830091003 | 68 | 184 | 1.0 | 3.0 | 0.00 | 0.00 | 0.00 | 70 | 1017.0 |
| 20260830090503 | 68 | 183 | 1.0 | 3.0 | 0.00 | 0.00 | 0.00 | 70 | 1017.1 |
| 20260830090104 | 68 | 195 | 1.0 | 5.0 | 0.00 | 0.00 | 0.00 | 69 | 1018.6 |
| 20260830085504 | 68 | 194 | 1.0 | 2.0 | 0.00 | 0.00 | 0.00 | 70 | 1017.0 |
| 20260830085004 | 68 | 220 | 1.0 | 3.0 | 0.00 | 0.00 | 0.00 | 70 | 1017.0 |
| 20260830084554 | 68 | 190 | 1.0 | 5.0 | 0.00 | 0.00 | 0.00 | 69 | 1018.8 |
| 20260830084504 | 68 | 195 | 2.0 | 3.0 | 0.00 | 0.00 | 0.00 | 70 | 1017.1 |
| 20260830084004 | 68 | 178 | 2.0 | 5.0 | 0.00 | 0.00 | 0.00 | 70 | 1017.2 |
| 20260830083503 | 68 | 197 | 2.0 | 5.0 | 0.00 | 0.00 | 0.00 | 70 | 1017.2 |
| 20260830083059 | 68 | 206 | 1.0 | 4.0 | 0.00 | 0.00 | 0.00 | 70 | 1018.9 |
| 20260830083003 | 68 | 187 | 1.0 | 3.0 | 0.00 | 0.00 | 0.00 | 71 | 1017.4 |
| 20260830082503 | 68 | 189 | 1.0 | 3.0 | 0.00 | 0.00 | 0.00 | 71 | 1017.3 |
| 20260830081557 | 68 | 0 | 1.0 | 2.0 | 0.00 | 0.00 | 0.00 | 71 | 1019.1 |
| 20260830081504 | 68 | 187 | 1.0 | 2.0 | 0.00 | 0.00 | 0.00 | 72 | 1017.5 |
| 20260830081004 | 68 | 191 | 1.0 | 2.0 | 0.00 | 0.00 | 0.00 | 71 | 1017.5 |
| 20260830080055 | 68 | 0 | 1.0 | 4.0 | 0.00 | 0.00 | 0.00 | 70 | 1019.1 |
| 20260830075504 | 68 | 192 | 1.0 | 3.0 | 0.00 | 0.00 | 0.00 | 71 | 1017.6 |
| 20260830075003 | 68 | 169 | 1.0 | 3.0 | 0.00 | 0.00 | 0.00 | 71 | 1017.5 |
| 20260830074558 | 68 | 197 | 1.0 | 4.0 | 0.00 | 0.00 | 0.00 | 71 | 1019.1 |
| 20260830074503 | 68 | 184 | 1.0 | 3.0 | 0.00 | 0.00 | 0.00 | 71 | 1017.6 |
| 20260830073504 | 68 | 195 | 2.0 | 3.0 | 0.00 | 0.00 | 0.00 | 71 | 1017.6 |
| 20260830073158 | 68 | 188 | 0.0 | 3.0 | 0.00 | 0.00 | 0.00 | 71 | 1019.0 |
| 20260830073003 | 68 | 210 | 1.0 | 3.0 | 0.00 | 0.00 | 0.00 | 71 | 1017.6 |
| 20260830072503 | 68 | 198 | 1.0 | 3.0 | 0.00 | 0.00 | 0.00 | 72 | 1017.5 |
| 20260830071557 | 68 | 178 | 1.0 | 4.0 | 0.00 | 0.00 | 0.00 | 71 | 1018.9 |
| 20260830071504 | 68 | 189 | 1.0 | 2.0 | 0.00 | 0.00 | 0.00 | 72 | 1017.5 |
| 20260830071004 | 68 | 193 | 2.0 | 3.0 | 0.00 | 0.00 | 0.00 | 72 | 1017.5 |
| 20260830070504 | 68 | 186 | 1.0 | 3.0 | 0.00 | 0.00 | 0.00 | 72 | 1017.4 |
| 20260830070054 | 68 | 190 | 2.0 | 5.0 | 0.00 | 0.00 | 0.00 | 72 | 1019.0 |
| 20260830070004 | 68 | 179 | 2.0 | 5.0 | 0.00 | 0.00 | 0.00 | 72 | 1017.5 |
| 20260830065504 | 68 | 204 | 1.0 | 3.0 | 0.00 | 0.00 | 0.00 | 72 | 1017.5 |
| 20260830065003 | 68 | 203 | 1.0 | 3.0 | 0.00 | 0.00 | 0.00 | 73 | 1017.6 |
| 20260830064602 | 68 | 178 | 1.0 | 3.0 | 0.00 | 0.00 | 0.00 | 73 | 1019.1 |
| 20260830064004 | 68 | 197 | 2.0 | 3.0 | 0.00 | 0.00 | 0.00 | 74 | 1017.6 |
| 20260830063504 | 68 | 208 | 1.0 | 3.0 | 0.00 | 0.00 | 0.00 | 74 | 1017.6 |
| 20260830063111 | 67 | 152 | 1.0 | 5.0 | 0.00 | 0.00 | 0.00 | 73 | 1019.3 |
| 20260830063004 | 68 | 182 | 1.0 | 3.0 | 0.00 | 0.00 | 0.00 | 74 | 1017.7 |
| 20260830062003 | 68 | 168 | 1.0 | 3.0 | 0.00 | 0.00 | 0.00 | 75 | 1017.9 |
| 20260830061607 | 67 | 178 | 1.0 | 3.0 | 0.00 | 0.00 | 0.00 | 73 | 1019.4 |
| 20260830061503 | 68 | 169 | 1.0 | 3.0 | 0.00 | 0.00 | 0.00 | 74 | 1017.9 |
| 20260830060504 | 68 | 168 | 1.0 | 2.0 | 0.00 | 0.00 | 0.00 | 75 | 1018.0 |
| 20260830060108 | 67 | 178 | 1.0 | 3.0 | 0.00 | 0.00 | 0.00 | 75 | 1019.5 |
| 20260830060004 | 68 | 151 | 1.0 | 3.0 | 0.00 | 0.00 | 0.00 | 75 | 1018.0 |
| 20260830055504 | 67 | 166 | 1.0 | 3.0 | 0.00 | 0.00 | 0.00 | 76 | 1018.1 |
| 20260830055003 | 67 | 191 | 1.0 | 3.0 | 0.00 | 0.00 | 0.00 | 77 | 1018.0 |
| 20260830054601 | 66 | 178 | 1.0 | 5.0 | 0.00 | 0.00 | 0.00 | 77 | 1019.4 |
| 20260830054503 | 67 | 188 | 2.0 | 3.0 | 0.00 | 0.00 | 0.00 | 78 | 1018.0 |
| 20260830053504 | 66 | 184 | 1.0 | 3.0 | 0.00 | 0.00 | 0.00 | 79 | 1017.8 |
| 20260830053053 | 66 | 178 | 1.0 | 2.0 | 0.00 | 0.00 | 0.00 | 79 | 1019.3 |
| 20260830053004 | 66 | 196 | 1.0 | 2.0 | 0.00 | 0.00 | 0.00 | 80 | 1017.8 |
| 20260830052504 | 66 | 202 | 1.0 | 2.0 | 0.00 | 0.00 | 0.00 | 81 | 1017.8 |
| 20260830052003 | 66 | 125 | 0.0 | 1.0 | 0.00 | 0.00 | 0.00 | 80 | 1017.8 |
| 20260830051609 | 66 | 0 | 0.0 | 2.0 | 0.00 | 0.00 | 0.00 | 80 | 1019.4 |
| 20260830051503 | 66 | 98 | 0.0 | 1.0 | 0.00 | 0.00 | 0.00 | 81 | 1018.0 |